period_start,C,m1,H,J0,J1,J2,J3,J4,J5,JA,JB,JC,JD,JJ,JK,JN,#
2018-10-18 00:04:27,0.00,0.00,0.00,22.34,26.82,28.77,0.00,0.36,1013.15,2027.70,3601.99,3084.99,3547.14,0.00,0.00,0.00,0000 0000 0000 A000 020008
2018-10-18 00:09:28,0.00,0.00,0.00,22.36,26.82,28.81,0.00,0.37,1013.20,2027.48,3601.96,3084.99,3547.08,0.00,0.00,0.00,0000 0000 0000 A000 020008
2018-10-18 00:14:29,0.00,0.00,0.00,22.37,26.82,28.87,0.00,0.31,1013.19,2027.38,3601.98,3084.99,3547.06,0.00,0.00,0.00,0000 0000 0000 A000 020008
2018-10-18 00:19:30,0.00,0.00,0.00,22.35,26.82,28.83,0.00,0.36,1013.03,2027.53,3601.99,3084.98,3547.10,0.00,0.00,0.00,0000 0000 0000 A000 020008
2018-10-18 00:24:31,0.00,0.00,0.00,22.36,26.80,28.88,-0.00,0.34,1012.72,2027.67,3601.99,3084.99,3547.19,0.00,0.00,0.00,0000 0000 0000 A000 020008
2018-10-18 00:29:32,0.00,0.00,0.00,22.37,26.80,28.87,0.00,0.39,1012.71,2027.68,3601.98,3084.99,3547.13,0.00,0.00,0.00,0000 0000 0000 A000 020008
2018-10-18 00:34:33,0.00,0.00,0.00,22.37,26.80,28.86,-0.00,0.36,1012.71,2027.73,3601.98,3084.99,3547.23,0.00,0.00,0.00,0000 0000 0000 A000 020008
2018-10-18 00:39:34,0.00,0.00,0.00,22.35,26.80,28.81,-0.00,0.32,1012.71,2027.78,3601.99,3084.99,3547.38,0.00,0.00,0.00,0000 0000 0000 A000 020008
2018-10-18 00:44:36,0.00,0.00,0.00,22.34,26.80,28.83,-0.00,0.48,1012.70,2027.81,3601.99,3084.99,3547.55,0.00,0.00,0.00,0000 0000 0000 A000 020008
2018-10-18 00:49:37,0.00,0.00,0.00,22.34,26.80,28.84,0.00,0.42,1012.67,2027.75,3601.99,3084.99,3547.25,0.00,0.00,0.00,0000 0000 0000 A000 020008
2018-10-18 00:54:38,0.00,0.00,0.00,22.32,26.78,28.82,0.00,0.49,1012.61,2027.73,3601.98,3084.99,3547.23,0.00,0.00,0.00,0000 0000 0000 A000 020008
2018-10-18 00:59:39,0.00,0.00,0.00,22.32,26.77,28.82,0.00,0.53,1012.45,2027.85,3601.99,3084.99,3547.54,0.00,0.00,0.00,0000 0000 0000 A000 020008
2018-10-18 01:04:40,0.00,0.00,0.00,22.29,26.77,28.83,-0.00,0.51,1012.51,2027.91,3601.99,3085.00,3547.87,0.00,0.00,0.00,0000 0000 0000 A000 020008
2018-10-18 01:09:41,0.00,0.00,0.00,22.29,26.77,28.77,-0.00,0.42,1012.36,2027.87,3601.99,3085.00,3547.74,0.00,0.00,0.00,0000 0000 0000 A000 020008
2018-10-18 01:14:42,0.00,0.00,0.00,22.27,26.77,28.81,0.00,0.46,1012.24,2027.91,3601.99,3085.00,3547.75,0.00,0.00,0.00,0000 0000 0000 A000 020008
2018-10-18 01:19:43,0.00,0.00,0.00,22.26,26.75,28.82,-0.00,0.53,1012.22,2027.96,3601.99,3085.01,3547.96,0.00,0.00,0.00,0000 0000 0000 A000 020008
2018-10-18 01:24:45,0.00,0.00,0.00,22.24,26.75,28.74,0.00,0.51,1012.23,2027.95,3602.00,3085.02,3547.96,0.00,0.00,0.00,0000 0000 0000 A000 020008
2018-10-18 01:29:46,0.00,0.00,0.00,22.22,26.75,28.72,-0.00,0.53,1012.26,2027.98,3602.02,3085.07,3547.98,0.00,0.00,0.00,0000 0000 0000 A000 020008
2018-10-18 01:34:47,0.00,0.00,0.00,22.21,26.73,28.71,0.00,0.46,1012.28,2027.98,3602.09,3085.21,3547.99,0.00,0.00,0.00,0000 0000 0000 A000 020008
2018-10-18 01:39:48,0.00,0.00,0.00,22.19,26.72,28.71,0.00,0.41,1012.35,2027.99,3602.07,3085.27,3547.99,0.00,0.00,0.00,0000 0000 0000 A000 020008
2018-10-18 01:44:50,0.00,0.00,0.00,22.19,26.72,28.71,-0.00,0.38,1012.57,2027.98,3602.14,3085.42,3547.99,0.00,0.00,0.00,0000 0000 0000 A000 020008
2018-10-18 01:49:51,0.00,0.00,0.00,22.17,26.70,28.65,0.00,0.37,1012.61,2027.99,3602.49,3085.69,3548.00,0.00,0.00,0.00,0000 0000 0000 A000 020008
2018-10-18 01:54:52,0.00,0.00,0.00,22.17,26.70,28.65,0.00,0.30,1012.66,2027.99,3602.73,3085.93,3548.01,0.00,0.00,0.00,0000 0000 0000 A000 020008
2018-10-18 01:59:53,0.00,0.00,0.00,22.16,26.69,28.62,0.00,0.33,1012.66,2027.99,3602.91,3085.97,3548.02,0.00,0.00,0.00,0000 0000 0000 A000 020008
2018-10-18 02:04:54,0.00,0.00,0.00,22.17,26.67,28.59,0.00,0.28,1012.58,2027.99,3602.95,3085.96,3548.02,0.00,0.00,0.00,0000 0000 0000 A000 020008
2018-10-18 02:09:56,0.00,0.00,0.00,22.17,26.67,28.58,0.00,0.27,1012.49,2027.99,3602.94,3085.98,3548.09,0.00,0.00,0.00,0000 0000 0000 A000 020008
2018-10-18 02:14:57,0.00,0.00,0.00,22.17,26.66,28.56,-0.00,0.28,1012.44,2027.99,3602.97,3085.98,3548.21,0.00,0.00,0.00,0000 0000 0000 A000 020008
2018-10-18 02:19:58,0.00,0.00,0.00,22.16,26.65,28.49,0.00,0.26,1012.41,2028.00,3602.98,3085.99,3548.58,0.00,0.00,0.00,0000 0000 0000 A000 020008
2018-10-18 02:24:59,0.00,0.00,0.00,22.15,26.65,28.52,0.00,0.27,1012.58,2028.00,3602.98,3085.99,3548.57,0.00,0.00,0.00,0000 0000 0000 A000 020008
2018-10-18 02:30:00,0.00,0.00,0.00,22.16,26.65,28.59,-0.00,0.29,1012.54,2028.00,3602.99,3085.99,3548.84,0.00,0.00,0.00,0000 0000 0000 A000 020008
2018-10-18 02:35:02,0.00,0.00,0.00,22.17,26.64,28.55,-0.00,0.30,1012.31,2028.00,3602.99,3085.99,3548.91,0.00,0.00,0.00,0000 0000 0000 A000 020008
2018-10-18 02:40:03,0.00,0.00,0.00,22.17,26.62,28.55,0.00,0.34,1012.31,2028.03,3602.99,3086.00,3548.98,0.00,0.00,0.00,0000 0000 0000 A000 020008
2018-10-18 02:45:04,0.00,0.00,0.00,22.18,26.62,28.57,-0.00,0.42,1012.26,2028.00,3603.00,3086.00,3548.97,0.00,0.00,0.00,0000 0000 0000 A000 020008
2018-10-18 02:50:05,0.00,0.00,0.00,22.17,26.62,28.59,0.00,0.40,1012.27,2028.01,3603.00,3086.00,3548.96,0.00,0.00,0.00,0000 0000 0000 A000 020008
2018-10-18 02:55:06,0.00,0.00,0.00,22.18,26.62,28.58,-0.00,0.42,1012.27,2028.01,3603.00,3086.01,3548.98,0.00,0.00,0.00,0000 0000 0000 A000 020008
2018-10-18 03:00:07,0.00,0.00,0.00,22.19,26.62,28.56,0.00,0.50,1012.26,2028.02,3603.00,3086.00,3548.97,0.00,0.00,0.00,0000 0000 0000 A000 020008
2018-10-18 03:05:08,0.00,0.00,0.00,22.19,26.62,28.55,-0.00,0.52,1012.23,2028.04,3603.02,3086.01,3548.99,0.00,0.00,0.00,0000 0000 0000 A000 020008
2018-10-18 03:10:09,0.00,0.00,0.00,22.19,26.62,28.59,0.00,0.67,1012.22,2028.03,3603.01,3086.01,3548.98,0.00,0.00,0.00,0000 0000 0000 A000 020008
2018-10-18 03:15:10,0.00,0.00,0.00,22.22,26.62,28.60,0.00,0.68,1012.22,2028.04,3603.01,3086.01,3548.99,0.00,0.00,0.00,0000 0000 0000 A000 020008
2018-10-18 03:20:12,0.00,0.00,0.00,22.22,26.62,28.56,-0.00,0.65,1012.21,2028.03,3603.01,3086.01,3548.99,0.00,0.00,0.00,0000 0000 0000 A000 020008
2018-10-18 03:25:12,0.00,0.00,0.00,22.23,26.62,28.64,0.00,0.68,1012.21,2028.02,3603.01,3086.01,3548.98,0.00,0.00,0.00,0000 0000 0000 A000 020008
2018-10-18 03:30:14,0.00,0.00,0.00,22.24,26.62,28.63,0.00,0.57,1012.15,2028.02,3603.01,3086.02,3548.99,0.00,0.00,0.00,0000 0000 0000 A000 020008
2018-10-18 03:35:15,0.00,0.00,0.00,22.24,26.62,28.63,0.00,0.67,1012.18,2028.05,3603.01,3086.03,3548.99,0.00,0.00,0.00,0000 0000 0000 A000 020008
2018-10-18 03:40:16,0.00,0.00,0.00,22.23,26.62,28.70,0.00,0.53,1012.22,2028.06,3603.03,3086.03,3548.99,0.00,0.00,0.00,0000 0000 0000 A000 020008
2018-10-18 03:45:18,0.00,0.00,0.00,22.22,26.62,28.65,-0.00,0.56,1012.20,2028.04,3603.02,3086.04,3548.98,0.00,0.00,0.00,0000 0000 0000 A000 020008
2018-10-18 03:50:19,0.00,0.00,0.00,22.24,26.62,28.64,-0.00,0.65,1012.08,2028.08,3603.04,3086.05,3548.99,0.00,0.00,0.00,0000 0000 0000 A000 020008
2018-10-18 03:55:20,0.00,0.00,0.00,22.24,26.62,28.66,-0.00,0.67,1011.85,2028.06,3603.04,3086.02,3548.99,0.00,0.00,0.00,0000 0000 0000 A000 020008
2018-10-18 04:00:21,0.00,0.00,0.00,22.24,26.62,28.72,-0.00,0.66,1011.95,2028.04,3603.02,3086.01,3548.99,0.00,0.00,0.00,0000 0000 0000 A000 020008
2018-10-18 04:05:22,0.00,0.00,0.00,22.24,26.62,28.70,0.00,0.66,1011.79,2028.03,3603.00,3086.02,3548.98,0.00,0.00,0.00,0000 0000 0000 A000 020008
2018-10-18 04:10:24,0.00,0.00,0.00,22.24,26.62,28.70,0.00,0.68,1011.77,2028.03,3603.00,3086.01,3548.97,0.00,0.00,0.00,0000 0000 0000 A000 020008
2018-10-18 04:15:25,0.00,0.00,0.00,22.24,26.62,28.68,-0.00,0.63,1011.73,2028.02,3603.00,3086.01,3548.98,0.00,0.00,0.00,0000 0000 0000 A000 020008
2018-10-18 04:20:26,0.00,0.00,0.00,22.24,26.62,28.69,0.00,0.88,1011.72,2028.02,3603.00,3086.00,3548.98,0.00,0.00,0.00,0000 0000 0000 A000 020008
2018-10-18 04:25:27,0.00,0.00,0.00,22.24,26.62,28.68,0.00,0.97,1011.62,2028.02,3603.00,3086.01,3548.97,0.00,0.00,0.00,0000 0000 0000 A000 020008
2018-10-18 04:30:29,0.00,0.00,0.00,22.22,26.62,28.68,0.00,0.78,1011.58,2028.01,3603.00,3086.00,3548.94,0.00,0.00,0.00,0000 0000 0000 A000 020008
2018-10-18 04:35:30,0.00,0.00,0.00,22.22,26.62,28.65,0.00,0.70,1011.58,2028.00,3603.00,3086.00,3548.88,0.00,0.00,0.00,0000 0000 0000 A000 020008
2018-10-18 04:40:31,0.00,0.00,0.00,22.22,26.62,28.66,-0.00,0.51,1011.46,2028.00,3603.00,3086.00,3548.82,0.00,0.00,0.00,0000 0000 0000 A000 020008
2018-10-18 04:45:32,0.00,0.00,0.00,22.19,26.61,28.65,0.00,0.44,1011.30,2028.00,3602.99,3086.00,3548.73,0.00,0.00,0.00,0000 0000 0000 A000 020008
2018-10-18 04:50:33,0.00,0.00,0.00,22.18,26.60,28.67,0.00,0.46,1011.25,2028.00,3602.99,3086.00,3548.94,0.00,0.00,0.00,0000 0000 0000 A000 020008
2018-10-18 04:55:34,0.00,0.00,0.00,22.17,26.60,28.67,-0.00,0.53,1011.18,2028.01,3603.00,3086.01,3548.97,0.00,0.00,0.00,0000 0000 0000 A000 020008
2018-10-18 05:00:36,0.00,0.00,0.00,22.15,26.60,28.65,-0.00,0.46,1010.99,2028.04,3603.01,3086.03,3548.99,0.00,0.00,0.00,0000 0000 0000 A000 020008
2018-10-18 05:05:37,0.00,0.00,0.00,22.13,26.59,28.63,0.00,0.54,1010.94,2028.05,3603.02,3086.08,3548.99,0.00,0.00,0.00,0000 0000 0000 A000 020008
2018-10-18 05:10:38,0.00,0.00,0.00,22.12,26.57,28.61,-0.00,0.45,1010.97,2028.06,3603.04,3086.06,3548.99,0.00,0.00,0.00,0000 0000 0000 A000 020008
2018-10-18 05:15:40,0.00,0.00,0.00,22.11,26.57,28.55,0.00,0.42,1010.96,2028.04,3603.03,3086.04,3548.99,0.00,0.00,0.00,0000 0000 0000 A000 020008
2018-10-18 05:20:41,0.00,0.00,0.00,22.09,26.57,28.52,0.00,0.45,1010.84,2028.05,3603.06,3086.14,3548.99,0.00,0.00,0.00,0000 0000 0000 A000 020008
2018-10-18 05:25:42,0.00,0.00,0.00,22.09,26.57,28.52,0.00,0.51,1010.77,2028.19,3603.24,3086.61,3548.99,0.00,0.00,0.00,0000 0000 0000 A000 020008
2018-10-18 05:30:43,0.00,0.00,0.00,22.08,26.55,28.59,0.00,0.42,1010.76,2028.25,3603.30,3086.66,3549.00,0.00,0.00,0.00,0000 0000 0000 A000 020008
2018-10-18 05:35:44,0.00,0.00,0.00,22.06,26.55,28.52,0.00,0.57,1010.73,2028.24,3603.38,3086.70,3549.00,0.00,0.00,0.00,0000 0000 0000 A000 020008
2018-10-18 05:40:46,0.00,0.00,0.00,22.04,26.54,28.51,0.00,0.54,1010.60,2028.50,3603.74,3086.89,3549.01,0.00,0.00,0.00,0000 0000 0000 A000 020008
2018-10-18 05:45:47,0.00,0.00,0.00,22.04,26.52,28.57,0.00,0.54,1010.59,2028.69,3603.87,3086.95,3549.06,0.00,0.00,0.00,0000 0000 0000 A000 020008
2018-10-18 05:50:48,0.00,0.00,0.00,22.02,26.52,28.55,0.00,0.56,1010.45,2028.88,3603.97,3086.98,3549.27,0.00,0.00,0.00,0000 0000 0000 A000 020008
2018-10-18 05:55:49,0.00,0.00,0.00,22.01,26.51,28.45,0.00,0.46,1010.30,2028.88,3603.96,3086.97,3549.34,0.00,0.00,0.00,0000 0000 0000 A000 020008
2018-10-18 06:00:50,0.00,0.00,0.00,21.99,26.50,28.38,0.00,0.47,1010.27,2028.92,3603.99,3086.99,3549.73,0.00,0.00,0.00,0000 0000 0000 A000 020008
2018-10-18 06:05:52,0.00,0.00,0.00,21.99,26.50,28.46,-0.00,0.50,1010.28,2028.97,3603.99,3086.99,3549.93,0.00,0.00,0.00,0000 0000 0000 A000 020008
2018-10-18 06:10:53,0.00,0.00,0.00,21.98,26.48,28.43,-0.00,0.43,1010.27,2028.95,3603.99,3086.99,3549.97,0.00,0.00,0.00,0000 0000 0000 A000 020008
2018-10-18 06:15:54,0.00,0.00,0.00,21.97,26.47,28.43,-0.00,0.46,1010.28,2028.98,3603.99,3086.99,3549.98,0.00,0.00,0.00,0000 0000 0000 A000 020008
2018-10-18 06:20:55,0.00,0.00,0.00,21.96,26.46,28.47,0.00,0.45,1010.30,2028.99,3603.99,3086.99,3549.99,0.00,0.00,0.00,0000 0000 0000 A000 020008
2018-10-18 06:25:56,0.00,0.00,0.00,21.95,26.45,28.36,-0.00,0.44,1010.54,2028.99,3604.00,3086.99,3549.99,0.00,0.00,0.00,0000 0000 0000 A000 020008
2018-10-18 06:30:57,0.00,0.00,0.00,21.94,26.45,28.34,-0.00,0.42,1010.69,2028.99,3604.10,3087.07,3549.99,0.00,0.00,0.00,0000 0000 0000 A000 020008
2018-10-18 06:35:58,0.00,0.00,0.00,21.93,26.42,28.39,-0.00,0.37,1010.76,2028.99,3604.11,3087.12,3550.01,0.00,0.00,0.00,0000 0000 0000 A000 020008
2018-10-18 06:40:59,0.00,0.00,0.00,21.93,26.42,28.36,0.00,0.38,1010.77,2028.99,3604.12,3087.19,3550.01,0.00,0.00,0.00,0000 0000 0000 A000 020008
2018-10-18 06:46:01,0.00,0.00,0.00,21.94,26.41,28.34,-0.00,0.36,1010.80,2028.99,3604.37,3087.48,3550.04,0.00,0.00,0.00,0000 0000 0000 A000 020008
2018-10-18 06:51:02,0.00,0.00,0.00,21.94,26.40,28.28,0.00,0.32,1010.83,2028.99,3604.71,3087.80,3550.15,0.00,0.00,0.00,0000 0000 0000 A000 020008
2018-10-18 06:56:03,0.00,0.00,0.00,21.93,26.40,28.28,0.00,0.33,1010.88,2029.00,3604.92,3087.96,3550.49,0.00,0.00,0.00,0000 0000 0000 A000 020008
2018-10-18 07:01:04,0.00,0.00,0.00,21.92,26.39,28.27,-0.00,0.29,1011.00,2029.01,3604.95,3087.96,3550.70,0.00,0.00,0.00,0000 0000 0000 A000 020008
2018-10-18 07:06:05,0.00,0.00,0.00,21.93,26.37,28.29,0.00,0.29,1011.00,2029.02,3604.96,3087.98,3550.86,0.00,0.00,0.00,0000 0000 0000 A000 020008
2018-10-18 07:11:07,0.00,0.00,0.00,21.94,26.37,28.28,-0.00,0.28,1010.89,2029.01,3604.97,3087.99,3550.84,0.00,0.00,0.00,0000 0000 0000 A000 020008
2018-10-18 07:16:08,0.00,0.00,0.00,21.93,26.37,28.25,0.00,0.33,1010.80,2029.03,3604.97,3087.98,3550.90,0.00,0.00,0.00,0000 0000 0000 A000 020008
2018-10-18 07:21:09,0.00,0.00,0.00,21.94,26.37,28.32,-0.01,0.33,1010.77,2029.02,3604.97,3087.97,3550.89,0.00,0.00,0.00,0000 0000 0000 A000 020008
2018-10-18 07:26:11,0.00,0.00,0.00,21.95,26.37,28.34,-0.00,0.30,1010.76,2029.03,3604.99,3087.99,3550.95,0.00,0.00,0.00,0000 0000 0000 A000 020008
2018-10-18 07:31:12,0.00,0.00,0.00,21.97,26.36,28.31,0.00,0.33,1010.73,2029.05,3604.99,3087.99,3550.98,0.00,0.00,0.00,0000 0000 0000 A000 020008
2018-10-18 07:36:13,0.00,0.00,0.00,21.99,26.35,28.33,-0.00,0.35,1010.64,2029.08,3604.99,3087.99,3550.97,0.00,0.00,0.00,0000 0000 0000 A000 020008
2018-10-18 07:41:14,0.00,0.00,0.00,21.99,26.35,28.35,0.00,0.34,1010.38,2029.04,3604.99,3087.99,3550.98,0.00,0.00,0.00,0000 0000 0000 A000 020008
2018-10-18 07:46:15,0.00,0.00,0.00,21.99,26.35,28.42,-0.00,0.40,1010.28,2029.08,3604.99,3087.99,3550.98,0.00,0.00,0.00,0000 0000 0000 A000 020008
2018-10-18 07:51:16,0.00,0.00,0.00,22.02,26.35,28.40,0.00,0.45,1010.28,2029.09,3604.99,3087.99,3550.99,0.00,0.00,0.00,0000 0000 0000 A000 020008
2018-10-18 07:56:17,0.00,0.00,0.00,22.02,26.35,28.45,0.00,0.35,1010.29,2029.15,3605.00,3087.99,3550.99,0.00,0.00,0.00,0000 0000 0000 A000 020008
2018-10-18 08:01:18,0.00,0.00,0.00,22.02,26.35,28.44,0.00,0.35,1010.30,2029.14,3605.00,3087.99,3550.99,0.00,0.00,0.00,0000 0000 0000 A000 020008
2018-10-18 08:06:19,0.00,0.00,0.00,22.02,26.35,28.45,-0.01,0.36,1010.29,2029.23,3605.00,3088.00,3551.00,0.00,0.00,0.00,0000 0000 0000 A000 020008
2018-10-18 08:11:21,0.00,0.00,0.00,22.02,26.35,28.48,-0.00,0.38,1010.29,2029.10,3605.00,3088.00,3550.99,0.00,0.00,0.00,0000 0000 0000 A000 020008
2018-10-18 08:16:22,0.00,0.00,0.00,22.02,26.35,28.49,-0.00,0.37,1010.29,2029.10,3605.00,3088.00,3550.98,0.00,0.00,0.00,0000 0000 0000 A000 020008
2018-10-18 08:21:23,0.00,0.00,0.00,22.02,26.35,28.45,-0.00,0.33,1010.32,2029.10,3605.00,3088.00,3550.99,0.00,0.00,0.00,0000 0000 0000 A000 020008
2018-10-18 08:26:24,0.00,0.00,0.00,22.02,26.35,28.45,-0.00,0.33,1010.37,2029.11,3605.00,3088.00,3550.98,0.00,0.00,0.00,0000 0000 0000 A000 020008
2018-10-18 08:31:25,0.00,0.00,0.00,22.01,26.35,28.43,-0.00,0.31,1010.29,2029.11,3605.00,3088.00,3550.98,0.00,0.00,0.00,0000 0000 0000 A000 020008
2018-10-18 08:36:27,0.00,0.00,0.00,22.02,26.35,28.43,-0.00,0.26,1010.29,2029.10,3604.99,3088.00,3550.98,0.00,0.00,0.00,0000 0000 0000 A000 020008
2018-10-18 08:41:28,0.00,0.00,0.00,22.02,26.35,28.43,-0.00,0.33,1010.29,2029.07,3604.98,3087.99,3550.98,0.00,0.00,0.00,0000 0000 0000 A000 020008
2018-10-18 08:46:29,0.00,0.00,0.00,22.02,26.35,28.44,0.00,0.33,1010.28,2029.08,3604.99,3087.99,3550.98,0.00,0.00,0.00,0000 0000 0000 A000 020008
2018-10-18 08:51:31,0.00,0.00,0.00,22.03,26.35,28.42,0.00,0.44,1010.27,2029.09,3604.99,3087.99,3550.98,0.00,0.00,0.00,0000 0000 0000 A000 020008
2018-10-18 08:56:32,0.00,0.00,0.00,22.04,26.36,28.47,0.00,0.38,1010.29,2029.18,3604.99,3087.99,3550.99,0.00,0.00,0.00,0000 0000 0000 A000 020008
2018-10-18 09:01:33,0.00,0.00,0.00,22.05,26.37,28.45,-0.00,0.31,1010.29,2029.10,3604.99,3087.99,3550.99,0.00,0.00,0.00,0000 0000 0000 A000 020008
2018-10-18 09:06:34,0.00,0.00,0.00,22.05,26.37,28.45,0.00,0.29,1010.27,2029.09,3604.99,3087.99,3550.99,0.00,0.00,0.00,0000 0000 0000 A000 020008
2018-10-18 09:11:35,0.00,0.00,0.00,22.04,26.37,28.46,-0.00,0.34,1010.28,2029.03,3604.99,3087.99,3550.97,0.00,0.00,0.00,0000 0000 0000 A000 020008
2018-10-18 09:16:36,0.00,0.00,0.00,22.04,26.37,28.45,0.00,0.31,1010.27,2029.02,3604.99,3087.99,3550.97,0.00,0.00,0.00,0000 0000 0000 A000 020008
2018-10-18 09:21:37,0.00,0.00,0.00,22.04,26.37,28.42,0.00,0.35,1010.27,2029.06,3604.99,3087.99,3550.97,0.00,0.00,0.00,0000 0000 0000 A000 020008
2018-10-18 09:26:38,0.00,0.00,0.00,22.04,26.37,28.46,0.00,0.33,1010.27,2029.06,3604.99,3087.99,3550.97,0.00,0.00,0.00,0000 0000 0000 A000 020008
2018-10-18 09:31:39,0.00,0.00,0.00,22.07,26.37,28.51,0.00,0.41,1010.27,2029.06,3604.99,3087.99,3550.98,0.00,0.00,0.00,0000 0000 0000 A000 020008
2018-10-18 09:36:40,0.00,0.00,0.00,22.07,26.37,28.52,0.00,0.42,1010.27,2029.05,3604.99,3087.99,3550.99,0.00,0.00,0.00,0000 0000 0000 A000 020008
2018-10-18 09:41:42,0.00,0.00,0.00,22.07,26.37,28.50,-0.00,0.46,1010.27,2029.06,3604.99,3087.99,3550.99,0.00,0.00,0.00,0000 0000 0000 A000 020008
2018-10-18 09:46:43,0.00,0.00,0.00,22.07,26.37,28.51,0.00,0.49,1010.18,2029.08,3604.99,3087.99,3550.99,0.00,0.00,0.00,0000 0000 0000 A000 020008
2018-10-18 09:51:44,0.00,0.00,0.00,22.07,26.38,28.53,0.00,0.53,1009.92,2029.07,3604.99,3087.99,3550.99,0.00,0.00,0.00,0000 0000 0000 A000 020008
2018-10-18 09:56:45,0.00,0.00,0.00,22.07,26.39,28.52,-0.00,0.52,1009.86,2029.06,3604.99,3087.99,3550.98,0.00,0.00,0.00,0000 0000 0000 A000 020008
2018-10-18 10:01:46,0.00,0.00,0.00,22.06,26.39,28.57,0.00,0.53,1009.94,2029.10,3604.99,3087.99,3550.99,0.00,0.00,0.00,0000 0000 0000 A000 020008
2018-10-18 10:06:47,0.00,0.00,0.00,22.04,26.39,28.52,-0.00,0.47,1009.98,2029.07,3604.99,3087.99,3550.97,0.00,0.00,0.00,0000 0000 0000 A000 020008
2018-10-18 10:11:48,0.00,0.00,0.00,22.04,26.40,28.51,0.00,0.55,1010.08,2029.06,3604.99,3087.99,3550.96,0.00,0.00,0.00,0000 0000 0000 A000 020008
2018-10-18 10:16:50,0.00,0.00,0.00,22.03,26.40,28.54,0.00,0.47,1010.08,2029.06,3604.99,3087.99,3550.98,0.00,0.00,0.00,0000 0000 0000 A000 020008
2018-10-18 10:21:51,0.00,0.00,0.00,22.02,26.39,28.51,-0.00,0.42,1010.14,2029.04,3604.99,3087.99,3550.96,0.00,0.00,0.00,0000 0000 0000 A000 020008
2018-10-18 10:26:52,0.00,0.00,0.00,22.02,26.39,28.45,-0.00,0.48,1010.15,2029.05,3604.99,3087.99,3550.96,0.00,0.00,0.00,0000 0000 0000 A000 020008
2018-10-18 10:31:53,0.00,0.00,0.00,22.02,26.39,28.44,0.00,0.39,1010.07,2029.08,3604.99,3087.99,3550.98,0.00,0.00,0.00,0000 0000 0000 A000 020008
2018-10-18 10:36:55,0.00,0.00,0.00,22.02,26.39,28.43,-0.00,0.43,1009.86,2029.07,3604.99,3087.99,3550.98,0.00,0.00,0.00,0000 0000 0000 A000 020008
2018-10-18 10:41:56,0.00,0.00,0.00,22.02,26.38,28.44,0.00,0.38,1009.79,2029.08,3604.99,3087.99,3550.99,0.00,0.00,0.00,0000 0000 0000 A000 020008
2018-10-18 10:46:57,0.00,0.00,0.00,22.01,26.38,28.50,-0.00,0.40,1009.78,2029.03,3604.99,3087.99,3550.97,0.00,0.00,0.00,0000 0000 0000 A000 020008
2018-10-18 10:51:59,0.00,0.00,0.00,22.00,26.37,28.48,-0.00,0.37,1009.78,2029.06,3604.99,3087.99,3550.96,0.00,0.00,0.00,0000 0000 0000 A000 020008
2018-10-18 10:57:00,0.00,0.00,0.00,22.00,26.37,28.44,-0.00,0.46,1009.78,2029.08,3604.99,3087.99,3550.98,0.00,0.00,0.00,0000 0000 0000 A000 020008
2018-10-18 11:02:01,0.00,0.00,0.00,22.00,26.37,28.45,0.00,0.42,1009.78,2029.05,3604.99,3087.99,3550.98,0.00,0.00,0.00,0000 0000 0000 A000 020008
2018-10-18 11:07:02,0.00,0.00,0.00,21.99,26.37,28.38,0.00,0.35,1009.78,2029.07,3604.99,3087.99,3550.99,0.00,0.00,0.00,0000 0000 0000 A000 020008
2018-10-18 11:12:03,0.00,0.00,0.00,21.99,26.37,28.39,-0.00,0.36,1009.78,2029.11,3604.99,3087.99,3550.99,0.00,0.00,0.00,0000 0000 0000 A000 020008
2018-10-18 11:17:05,0.00,0.00,0.00,21.99,26.37,28.40,0.00,0.41,1009.78,2029.09,3604.99,3087.99,3550.99,0.00,0.00,0.00,0000 0000 0000 A000 020008
2018-10-18 11:22:06,0.00,0.00,0.00,21.99,26.37,28.44,0.00,0.33,1009.78,2029.11,3604.99,3087.99,3550.99,0.00,0.00,0.00,0000 0000 0000 A000 020008
2018-10-18 11:27:07,0.00,0.00,0.00,21.99,26.37,28.39,0.00,0.33,1009.78,2029.04,3604.98,3087.99,3550.97,0.00,0.00,0.00,0000 0000 0000 A000 020008
2018-10-18 11:32:08,0.00,0.00,0.00,21.98,26.37,28.42,0.00,0.34,1009.78,2029.05,3604.99,3087.99,3550.98,0.00,0.00,0.00,0000 0000 0000 A000 020008
2018-10-18 11:37:09,0.00,0.00,0.00,21.99,26.37,28.37,-0.00,0.33,1009.78,2029.07,3604.99,3087.99,3550.99,0.00,0.00,0.00,0000 0000 0000 A000 020008
2018-10-18 11:42:10,0.00,0.00,0.00,22.00,26.37,28.34,0.00,0.34,1009.79,2029.11,3604.99,3087.99,3550.98,0.00,0.00,0.00,0000 0000 0000 A000 020008
2018-10-18 11:47:12,0.00,0.00,0.00,22.00,26.37,28.38,-0.00,0.38,1009.79,2029.06,3604.99,3087.99,3550.98,0.00,0.00,0.00,0000 0000 0000 A000 020008
2018-10-18 11:52:13,0.00,0.00,0.00,22.00,26.37,28.41,0.00,0.28,1009.78,2029.02,3604.99,3087.99,3550.97,0.00,0.00,0.00,0000 0000 0000 A000 020008
2018-10-18 11:57:14,0.00,0.00,0.00,22.01,26.37,28.37,-0.00,0.30,1009.78,2029.06,3604.99,3087.99,3550.97,0.00,0.00,0.00,0000 0000 0000 A000 020008
2018-10-18 12:02:15,0.00,0.00,0.00,22.01,26.37,28.38,0.00,0.28,1009.78,2029.10,3604.99,3087.99,3550.97,0.00,0.00,0.00,0000 0000 0000 A000 020008
2018-10-18 12:07:16,0.00,0.00,0.00,22.02,26.37,28.40,0.00,0.29,1009.78,2029.05,3604.99,3087.99,3550.98,0.00,0.00,0.00,0000 0000 0000 A000 020008
2018-10-18 12:12:18,0.00,0.00,0.00,22.02,26.37,28.45,0.00,0.27,1009.78,2029.05,3604.99,3087.99,3550.98,0.00,0.00,0.00,0000 0000 0000 A000 020008
2018-10-18 12:17:19,0.00,0.00,0.00,22.02,26.37,28.43,-0.00,0.28,1009.73,2029.04,3604.99,3087.99,3550.97,0.00,0.00,0.00,0000 0000 0000 A000 020008
2018-10-18 12:22:20,0.00,0.00,0.00,22.04,26.37,28.47,-0.00,0.34,1009.58,2029.04,3604.99,3087.99,3550.98,0.00,0.00,0.00,0000 0000 0000 A000 020008
2018-10-18 12:27:21,0.00,0.00,0.00,22.06,26.37,28.45,0.00,0.32,1009.42,2029.04,3604.99,3087.99,3550.97,0.00,0.00,0.00,0000 0000 0000 A000 020008
2018-10-18 12:32:22,0.00,0.00,0.00,22.08,26.37,28.47,0.00,0.38,1009.34,2029.06,3604.98,3087.99,3550.97,0.00,0.00,0.00,0000 0000 0000 A000 020008
2018-10-18 12:37:23,0.00,0.00,0.00,22.09,26.39,28.52,0.00,0.36,1009.32,2029.05,3604.99,3087.99,3550.99,0.00,0.00,0.00,0000 0000 0000 A000 020008
2018-10-18 12:42:25,0.00,0.00,0.00,22.09,26.39,28.53,-0.00,0.33,1009.31,2029.04,3604.98,3087.99,3550.94,0.00,0.00,0.00,0000 0000 0000 A000 020008
2018-10-18 12:47:26,0.00,0.00,0.00,22.09,26.40,28.52,0.00,0.29,1009.30,2029.01,3604.96,3087.98,3550.75,0.00,0.00,0.00,0000 0000 0000 A000 020008
2018-10-18 12:52:27,0.00,0.00,0.00,22.11,26.40,28.49,-0.00,0.30,1009.29,2029.03,3604.97,3087.99,3550.80,0.00,0.00,0.00,0000 0000 0000 A000 020008
2018-10-18 12:57:28,0.00,0.00,0.00,22.12,26.40,28.53,0.00,0.38,1009.29,2029.03,3604.96,3087.97,3550.76,0.00,0.00,0.00,0000 0000 0000 A000 020008
2018-10-18 13:02:29,0.00,0.00,0.00,22.13,26.40,28.57,0.00,0.37,1009.25,2029.01,3604.93,3087.97,3550.57,0.00,0.00,0.00,0000 0000 0000 A000 020008
2018-10-18 13:07:31,0.00,0.00,0.00,22.12,26.41,28.58,0.00,0.35,1009.17,2029.01,3604.96,3087.98,3550.68,0.00,0.00,0.00,0000 0000 0000 A000 020008
2018-10-18 13:12:32,0.00,0.00,0.00,22.13,26.42,28.60,-0.00,0.32,1009.17,2029.00,3604.89,3087.93,3550.27,0.00,0.00,0.00,0000 0000 0000 A000 020008
2018-10-18 13:17:33,0.00,0.00,0.00,22.14,26.42,28.55,-0.00,0.34,1009.18,2029.00,3604.77,3087.91,3550.17,0.00,0.00,0.00,0000 0000 0000 A000 020008
2018-10-18 13:22:34,0.00,0.00,0.00,22.14,26.42,28.52,0.00,0.32,1009.23,2029.00,3604.74,3087.86,3550.11,0.00,0.00,0.00,0000 0000 0000 A000 020008
2018-10-18 13:27:35,0.00,0.00,0.00,22.13,26.42,28.52,0.00,0.37,1009.22,2029.00,3604.88,3087.94,3550.22,0.00,0.00,0.00,0000 0000 0000 A000 020008
2018-10-18 13:32:35,0.00,0.00,0.00,22.12,26.43,28.54,-0.00,0.38,1009.15,2029.00,3604.65,3087.81,3550.08,0.00,0.00,0.00,0000 0000 0000 A000 020008